This is the latest recevied weather packets stored in our database for station/object JO1YDG-13. If no packets are shown the sender has not sent any weather packets the latest 1 day(s).
| Time | Temp. | Humidity | Pressure | Rain* | Wind** | Luminosity | Snow |
|---|---|---|---|---|---|---|---|
| 1836274598 | 21.67° C | 88% | 1015.6 hPa | 2.54 mm | 0 m/s | - | - |
| 1836274449 | 20.56° C | 90% | 1015.5 hPa | 2.79 mm | 0 m/s | - | - |
| 1836274298 | 21.67° C | 87% | 1016.2 hPa | 0.51 mm | 0.45 m/s, 122° | - | - |
| 1836274149 | 21.11° C | 91% | 1015.6 hPa | 2.79 mm | 0 m/s | - | - |
| 1836273998 | 21.67° C | 87% | 1016.2 hPa | 0.51 mm | 0.45 m/s, 112° | - | - |
| 1778042884 | 18.33° C | 55% | 991.7 hPa | 0 mm | 0.89 m/s, 144° | - | - |
| 1778042584 | 18.33° C | 56% | 991.7 hPa | 0 mm | 0.45 m/s, 104° | - | - |
| 1778042284 | 18.33° C | 56% | 991.9 hPa | 0 mm | 0.89 m/s, 90° | - | - |
| 1778041984 | 18.33° C | 55% | 991.9 hPa | 0 mm | 0.89 m/s, 0° | - | - |
| 1778041684 | 18.33° C | 55% | 991.9 hPa | 0 mm | 0.45 m/s, 0° | - | - |
| 1778041384 | 17.78° C | 55% | 992.1 hPa | 0 mm | 0.89 m/s, 159° | - | - |
| 1778041084 | 18.33° C | 54% | 992.1 hPa | 0 mm | 0.89 m/s, 192° | - | - |
| 1778040783 | 18.33° C | 55% | 992.3 hPa | 0 mm | 0.89 m/s, 270° | - | - |
| 1778040483 | 17.78° C | 55% | 992.3 hPa | 0 mm | 0.45 m/s, 222° | - | - |
| 1778040185 | 17.78° C | 55% | 992.3 hPa | 0 mm | 0.89 m/s, 136° | - | - |
| 1778039884 | 17.78° C | 55% | 992.5 hPa | 0 mm | 0.89 m/s, 223° | - | - |
| 1778039584 | 18.33° C | 54% | 992.5 hPa | 0 mm | 0.89 m/s, 319° | - | - |
| 1778039284 | 17.78° C | 54% | 992.5 hPa | 0 mm | 0.89 m/s, 336° | - | - |
| 1778038984 | 17.78° C | 53% | 992.5 hPa | 0 mm | 1.34 m/s, 135° | - | - |
| 1778038684 | 17.78° C | 54% | 992.9 hPa | 0 mm | 2.24 m/s, 140° | - | - |
| 1778038384 | 18.33° C | 53% | 992.9 hPa | 0 mm | 1.34 m/s, 132° | - | - |
| 1778038083 | 17.78° C | 53% | 992.9 hPa | 0 mm | 0.89 m/s, 116° | - | - |
| 1778037783 | 17.78° C | 52% | 993 hPa | 0 mm | 1.34 m/s, 322° | - | - |
| 1778037483 | 17.78° C | 52% | 993 hPa | 0 mm | 1.34 m/s, 290° | - | - |
| 1778037183 | 17.78° C | 53% | 993.1 hPa | 0 mm | 0.89 m/s, 326° | - | - |
* Rain latest hour (hover to see other rain measurements)
** Current wind speed in m/s (hover to see current wind gust speed)